Regional Weather Roundup
Issued by NWS

Home | Current Version | Previous Version | Text Only | Print | Product List | Glossary Off
Versions: 1 2 3 4 5 6 7 8 9 10 11 12 13 14 15 16 17 18 19 20 21 22 23 24 25 26 27 28 29 30 31 32 33 34 35 36 37 38 39 40 41 42 43 44 45 46 47 48 49 50

000
ASUS45 KBOU 220107
RWRCO

WEATHER ROUNDUP FOR COLORADO
NATIONAL WEATHER SERVICE DENVER/BOULDER CO
700 PM MDT SUN SEP 21 2014

NOTE: "FAIR" INDICATES FEW OR NO CLOUDS BELOW 12000 FEET WITH NO
SIGNIFICANT WEATHER AND/OR OBSTRUCTIONS TO VISIBILITY.

COZ001>005-013-030-031-220200-
...NORTHWEST COLORADO...

CITY           SKY/WX    TMP DP  RH WIND       PRES   REMARKS
CRAIG          CLOUDY    63  51  65 VRB3      30.25S
HAYDEN         CLOUDY    59  48  67 E13       30.28F
MEEKER         NOT AVBL
MOUNT WERNER   NOT AVBL
STEAMBOAT SPGS CLOUDY    56  53  88 CALM      30.32S
WALDEN         CLOUDY    54  43  66 NE5       30.42F
$$

COZ006>008-011-220200-
...WEST CENTRAL VALLEYS...

CITY           SKY/WX    TMP DP  RH WIND       PRES   REMARKS
GRAND JUNCTION RAIN      60  58  92 W8        30.20R FOG
MONTROSE       CLOUDY    68  55  63 NW12      30.22R
EAGLE          PTCLDY    68  48  49 CALM      30.30F
RIFLE          MOCLDY    67  54  63 W18       30.19R
DELTA          RAIN      73  60  62 CALM      30.16R
NUCLA          CLOUDY    64  55  72 NW9       30.26F
$$

COZ017>023-064>068-220200-
...SOUTHWEST COLORADO...

CITY           SKY/WX    TMP DP  RH WIND       PRES   REMARKS
DURANGO        CLOUDY    72  48  42 W7        30.26S
CORTEZ         MOCLDY    73  49  42 S3        30.19S
PAGOSA SPRINGS CLOUDY    68  41  36 E6        30.36R
TELLURIDE      NOT AVBL
WOLF CREEK PAS CLOUDY    46  36  66 SW14      30.64S
$$

COZ009-010-012-014-032>034-037-058>063-220200-
...CENTRAL COLORADO...

CITY           SKY/WX    TMP DP  RH WIND       PRES   REMARKS
ASPEN          MOCLDY    62  47  57 CALM      30.34S
BUENA VISTA    PTCLDY    57  50  78 SE6       30.42S
COPPER MTN     MOCLDY    46  41  81 NW6       30.66S
BERTHOUD PASS  CLOUDY    37  36  93 MISG      30.71S
COTTONWOOD PAS MOCLDY    54  50  87 CALM      30.53S
GUNNISON       MOCLDY    64  46  52 CALM      30.35S
KREMMLING      MOCLDY    55  46  71 E5        30.40F
LEADVILLE      MOCLDY    50  47  89 S13       30.50S
MONARCH PASS   FOG       45  43  93 E6        30.76S THUNDER VSB<1/4
SALIDA         PTCLDY    59  53  80 SE14G21   30.46S
SUNLIGHT       MOCLDY    50  45  81 E3        30.57S
WILKERSON PASS NOT AVBL
$$

COZ069>075-220200-
...SAN LUIS VALLEY/SANGRE DE CRISTO MOUNTAINS...

CITY           SKY/WX    TMP DP  RH WIND       PRES   REMARKS
ALAMOSA        MOCLDY    62  50  64 E14       30.34R
LA VETA PASS   DRZL/FOG  46  45  93 NE12      30.57F VSB<1/4
SAGUACHE       NOT AVBL
$$

COZ035-036-038>040-220200-
...NORTHERN COLORADO FRONT RANGE...

CITY           SKY/WX    TMP DP  RH WIND       PRES   REMARKS
DENVER INTL AP MOCLDY    68  49  50 NW8       30.28R
DMNS CITY PARK   N/A     66  51  59 W3        30.28R
AURORA         MOCLDY    66  50  56 CALM      30.31R
FRONT RANGE AP NOT AVBL
ERIE MUNI ARPT NOT AVBL
BOULDER MUN AP CLOUDY    66  50  55 CALM      30.28R
CENTENNIAL     MOCLDY    64  51  62 NW5       30.31R
BROOMFIELD     MOCLDY    66  48  52 W8        30.31R
FORT COLLINS   CLOUDY    66  52  59 N8        30.27S
LONGMONT       CLOUDY    68  54  60 W3        30.28S
$$

COZ041-046-047-076>085-087-088-220200-
...PIKES PEAK/PALMER DIVIDE AND SOUTHERN FOOTHILLS...

CITY           SKY/WX    TMP DP  RH WIND       PRES   REMARKS
COLO. SPRINGS  MOCLDY    66  48  52 S10       30.37R
A. F. ACADEMY  PTCLDY    63  49  61 SE17G23   30.37R
ELLICOTT       NOT AVBL
FALCON         MOCLDY    59  45  60 S5        30.41S
FORT CARSON    CLOUDY    67  49  54 SW8       30.34R
LIMON          PTCLDY    66  41  40 S12       30.32S
MONUMENT HILL  MOCLDY    59  46  63 S16       30.37S
TRINIDAD       LGT RAIN  62  58  86 S6        30.33F FOG
$$

COZ042>045-048>051-090-091-220200-
...NORTHEAST COLORADO...

CITY           SKY/WX    TMP DP  RH WIND       PRES   REMARKS
GREELEY ARPT   CLOUDY    72  48  43 E6        30.25S
AKRON          MOCLDY    64  41  42 E13       30.29R
BURLINGTON     PTCLDY    67  39  35 E7        30.31R
WRAY           MOCLDY    68  41  38 E6        30.29S
STERLING       MOCLDY    70  45  40 SE9       30.26S
HOLYOKE        MOCLDY    68  43  40 E6        30.29S
FORT MORGAN    MOCLDY    64  41  42 E14       30.27S
$$

COZ086-089-092>099-220200-
...SOUTHEAST COLORADO...

CITY           SKY/WX    TMP DP  RH WIND       PRES   REMARKS
PUEBLO         MOCLDY    73  49  42 E9        30.27R
LA JUNTA       CLEAR     73  43  33 SE10      30.26R
LAMAR          CLEAR     72  42  34 SE8       30.25R
SPRINGFIELD      N/A     68  43  40 E10       30.29R
$$


USA.gov is the U.S. government's official web portal to all federal, state and local government web resources and services.